Location: Feura Bush
(42.5779°N, 73.8787°W)
Time: 10:37:42
(UTC+00:00)

ARIANE 6 FM1 Upper Stage - Visible Passes

Search period start: 10 October 2024 00:00
Search period end: 20 October 2024 00:00
Orbit: 563 x 594 km, 62.0° (Epoch: 09 October)

Date Brightness Start Highest point End Pass type
(mag) Time Alt. Az. Time Alt. Az. Time Alt. Az.
12 Oct 5.4 00:45:08 10° N 00:45:36 11° N 00:45:36 11° N visible
13 Oct 5.3 00:48:58 10° N 00:49:46 13° N 00:49:46 13° N visible
14 Oct 5.2 00:52:57 10° NNW 00:53:57 15° N 00:53:57 15° N visible
15 Oct 5.2 00:57:01 10° NNW 00:58:10 17° NNW 00:58:10 17° NNW visible
15 Oct 4.9 23:23:28 10° N 23:25:10 12° NNE 23:26:07 11° NE visible
16 Oct 5.1 01:01:08 10° NNW 01:02:24 18° NNW 01:02:24 18° NNW visible
16 Oct 4.6 23:27:05 10° N 23:29:46 16° NNE 23:30:23 15° NE visible
17 Oct 5.2 01:05:21 10° NW 01:06:40 19° NW 01:06:40 19° NW visible
17 Oct 4.2 23:30:55 10° NNW 23:34:16 21° NE 23:34:43 21° NE visible
18 Oct 5.2 01:09:37 10° NW 01:11:00 20° NW 01:11:00 20° NW visible
18 Oct 3.7 23:34:51 10° NNW 23:38:41 29° NE 23:39:07 28° NE visible
19 Oct 5.4 01:14:02 10° NW 01:15:25 19° WNW 01:15:25 19° WNW visible
19 Oct 3.2 23:38:52 10° NNW 23:43:02 42° NE 23:43:36 40° ENE visible
